Mitchell, SD

10:12 PM CDT on September 18, 2019 (GMT -0500)
Mitchell Municipal

Weather History for KMHE - July, 2019

Change the Weather History Date:

Tuesday, July 30, 2019

  Actual Average Record
Temperature  
Mean Temperature 69 °F 74 °F  
Max Temperature 76 °F 86 °F 106 °F (1955)
Min Temperature 61 °F 63 °F 39 °F (1971)
Degree Days  
Heating Degree Days 0 0  
Month to date heating degree days 0 0  
Since 1 June heating degree days 16 35  
Since 1 July heating degree days 0 0  
Cooling Degree Days 4 9  
Month to date cooling degree days 361 295  
Year to date cooling degree days 572 505  
Since 1 June cooling degree days 553 465  
Growing Degree Days 18 (Base 50)    
Moisture  
Dew Point 59 °F    
Average Humidity 74    
Maximum Humidity 90    
Minimum Humidity 58    
Precipitation  
Precipitation 0.34 in 0.10 in 2.52 in (1941)
Month to date precipitation 6.44 3.02  
Year to date precipitation 20.90 13.88  
Snow  
Snow 0.00 in - 0.00 in ()
Month to date snowfall 0.0  
Since 1 June snowfall 0.0  
Since 1 July snowfall 0.0  
Snow Depth 0.00 in    
Sea Level Pressure  
Sea Level Pressure 30.08 in    
Wind  
Wind Speed 10 mph (SE)    
Max Wind Speed 17 mph    
Max Gust Speed 28 mph    
Visibility 9 miles    
Events Rain , Thunderstorm    
T = Trace of Precipitation, MM = Missing Value Source: NWS Daily Summary

Daily Weather History Graph

Daily Weather History Graph

Search for Another Location

Airport or City:

Astronomy

Jul. 30, 2019 Rise Set
Actual Time 6:18 AM CDT 8:57 PM CDT
Civil Twilight 5:45 AM CDT 9:30 PM CDT
Nautical Twilight 5:03 AM CDT 10:12 PM CDT
Astronomical Twilight 4:16 AM CDT 10:59 PM CDT
Moon 4:25 AM CDT (7/30) 8:06 PM CDT (7/30)
Length of Visible Light 15h 45m
Length of Day
14h 39m
Waning Crescent, 3% of the Moon is Illuminated
Jul 30
Waning Crescent
Jul 31
New
Aug 7
First Quarter
Aug 15
Full
Aug 23
Last Quarter

Hourly Weather History & Observations

Time (CDT) Temp. Dew Point Humidity Pressure Visibility Wind Dir Wind Speed Gust Speed Precip Events Conditions
12:53 AM 63.0 °F 59.0 °F 87% 30.09 in 10.0 mi East 3.5 mph - N/A   Clear
1:53 AM 62.1 °F 57.9 °F 86% 30.08 in 10.0 mi ESE 4.6 mph - N/A   Clear
2:53 AM 62.1 °F 57.9 °F 86% 30.09 in 10.0 mi Calm Calm - N/A   Mostly Cloudy
3:53 AM 63.0 °F 57.9 °F 84% 30.09 in 10.0 mi ESE 4.6 mph - N/A   Mostly Cloudy
4:53 AM 62.1 °F 55.9 °F 80% 30.12 in 10.0 mi SSE 4.6 mph - N/A   Scattered Clouds
5:53 AM 62.1 °F 57.0 °F 84% 30.13 in 10.0 mi SSE 4.6 mph - N/A   Mostly Cloudy
6:53 AM 62.1 °F 57.9 °F 86% 30.12 in 10.0 mi ESE 6.9 mph - N/A   Clear
7:53 AM 64.0 °F 57.9 °F 80% 30.11 in 10.0 mi ESE 9.2 mph - N/A   Overcast
8:53 AM 68.0 °F 57.0 °F 68% 30.12 in 10.0 mi SE 13.8 mph 19.6 mph N/A   Clear
9:53 AM 70.0 °F 55.9 °F 61% 30.13 in 10.0 mi SSE 11.5 mph - N/A   Scattered Clouds
10:53 AM 72.0 °F 57.0 °F 59% 30.12 in 10.0 mi South 12.7 mph - N/A   Clear
11:53 AM 75.9 °F 59.0 °F 56% 30.10 in 10.0 mi SSE 13.8 mph 23.0 mph N/A   Clear
12:53 PM 70.0 °F 57.0 °F 63% 30.09 in 10.0 mi SSE 15.0 mph 21.9 mph N/A   Clear
1:53 PM 64.9 °F 61.0 °F 87% 30.09 in 5.0 mi SSE 12.7 mph - N/A Rain Light Rain
2:15 PM 64.9 °F 61.0 °F 87% 30.08 in 8.0 mi SSE 15.0 mph 21.9 mph 0.00 in Rain , Thunderstorm Light Thunderstorms and Rain
2:27 PM 64.9 °F 61.0 °F 87% 30.08 in - South 13.8 mph - N/A Rain , Thunderstorm Light Thunderstorms and Rain
2:44 PM 64.9 °F 61.0 °F 87% 30.06 in 4.0 mi SSE 13.8 mph - N/A Rain Rain
2:53 PM 64.0 °F 61.0 °F 90% 30.06 in 4.0 mi SE 10.4 mph 20.7 mph N/A Rain , Thunderstorm Rain
3:28 PM 64.0 °F 60.1 °F 87% 30.08 in 10.0 mi SE 11.5 mph - 0.00 in Rain Light Rain
3:48 PM 64.4 °F 60.8 °F 88% 30.08 in 10.0 mi SE 10.4 mph - 0.00 in Rain , Thunderstorm Light Rain
3:53 PM 66.0 °F 61.0 °F 84% 30.07 in 10.0 mi ESE 9.2 mph - 0.00 in Thunderstorm Overcast
4:03 PM 66.9 °F 62.1 °F 84% 30.07 in 10.0 mi SE 11.5 mph - N/A   Overcast
4:53 PM 69.1 °F 61.0 °F 75% 30.06 in 10.0 mi SE 11.5 mph 20.7 mph N/A   Scattered Clouds
5:53 PM 72.0 °F 60.1 °F 66% 30.05 in 10.0 mi SE 13.8 mph - N/A   Mostly Cloudy
6:53 PM 72.0 °F 61.0 °F 68% 30.05 in 10.0 mi SE 11.5 mph - N/A   Mostly Cloudy
7:53 PM 69.1 °F 62.1 °F 78% 30.05 in 10.0 mi SE 9.2 mph - N/A   Overcast
8:53 PM 68.0 °F 61.0 °F 78% 30.05 in 10.0 mi ESE 11.5 mph - N/A   Overcast
9:53 PM 66.9 °F 61.0 °F 81% 30.06 in 10.0 mi ESE 11.5 mph - N/A   Overcast
10:53 PM 66.0 °F 61.0 °F 84% 30.06 in 10.0 mi SE 10.4 mph - N/A   Clear
11:53 PM 66.0 °F 61.0 °F 84% 30.06 in 10.0 mi SE 12.7 mph - N/A   Mostly Cloudy